Regional Weather Roundup
Issued by NWS

Home | Current Version | Previous Version | Text Only | Print | Product List | Glossary On
Versions: 1 2 3 4 5 6 7 8 9 10 11 12 13 14 15 16 17 18 19 20 21 22 23 24 25 26 27 28 29 30 31 32 33 34 35 36 37 38 39 40 41 42 43 44 45 46 47 48 49 50
000
ASUS43 KMPX 121610
RWRMN
WEATHER ROUNDUP FOR MINNESOTA
NATIONAL WEATHER SERVICE TWIN CITIES/CHANHASSEN MN
1000 AM CST FRI FEB 12 2016


NOTE: "FAIR" INDICATES FEW OR NO CLOUDS BELOW 12,000 FEET WITH NO
SIGNIFICANT WEATHER AND/OR OBSTRUCTIONS TO VISIBILITY. N/A MEANS
CURRENT SKY AND/OR WEATHER CONDITIONS ARE NOT AVAILABLE.

MNZ060>063-068>070-121700-
   Twin Cities Metro

CITY           SKY/WX    TMP DP  RH WIND       PRES   REMARKS
TWIN CITIES    SUNNY      8  -4  58 NW22G31   30.38R WCI -12
ST PAUL        SUNNY      8  -4  58 NW21      30.39R WCI -12
CRYSTAL        SUNNY      8  -5  55 N21G26    30.38R WCI -12
BLAINE         MOSUNNY    9  -2  61 NW21G29   30.37R WCI -11
LAKEVILLE      SUNNY      9  -2  61 NW20G25   30.35R WCI -11
EDEN PRAIRIE   SUNNY      9  -3  58 NW14G28   30.38R WCI  -7
SOUTH ST PAUL  SUNNY      9  -3  56 NW17G29   30.37R WCI  -9
LAKE ELMO      FAIR       9  -2  61 NW17G26   30.36R WCI -10
$$
MNZ001>005-007-008-013>017-022>024-027-028-121700-
   Northwest Minnesota

CITY           SKY/WX    TMP DP  RH WIND       PRES   REMARKS
BEMIDJI        MOSUNNY   -7 -16  66 NW17      30.45R WCI -30
HALLOCK        SUNNY     -9 -17  70 N18       30.63R WCI -33
ROSEAU         SUNNY    -11 -18  70 W9        30.55R WCI -29
WARROAD        CLOUDY   -11 -18  70 NW12      30.52R WCI -31
THIEF RVR FALL MOSUNNY   -8 -20  54 NW15      30.56R WCI -29
CROOKSTON      SUNNY     -6 -13  71 N20G25    30.62R WCI -29
FOSSTON        MOSUNNY   -6 -17  59 NW13      30.53R WCI -25
DETROIT LAKES  FLURRIES  -4  -9  77 N20G26    30.50R WCI -27
MOORHEAD       PTSUNNY   -2  -9  71 N24       30.59R WCI -27
PARK RAPIDS    SUNNY     -3 -15  56 N13       30.44R WCI -22
MAHNOMEN       FAIR      -6 -13  71 N16       30.52R WCI -28
$$
MNZ006-009>011-018-025>026-121700-
   North Central Minnesota

CITY           SKY/WX    TMP DP  RH WIND       PRES   REMARKS
BAUDETTE       SUNNY    -12 -21  64 NW18G25   30.47R WCI -37
FLAG ISLAND    CLOUDY   -15 -20  76 NW20      30.49R WCI -41
INTL FALLS     MOSUNNY  -10 -20  61 NW9       30.42R WCI -27
WASKISH        MOSUNNY   -8 -17  65 NW12      30.47R WCI -27
LONGVILLE      SUNNY     -4 -15  59 NW10G17   30.42R WCI -21
GRAND RAPIDS   MOSUNNY   -6 -17  59 NW16G24   30.37R WCI -28
CRANE LAKE     PTSUNNY  -11 -20  64 NW9       30.39R WCI -29
ORR            MOSUNNY   -9 -20  59 NW10G20   30.34R WCI -28
COOK           PTSUNNY   -8 -18  59 NW14      30.35R WCI -28
WALKER         FAIR      -6 -15  62 NW12G18   30.44R WCI -24
$$
MNZ012-019>021-037-121700-
   Northeast Minnesota

CITY           SKY/WX    TMP DP  RH WIND       PRES   REMARKS
DULUTH         MOSUNNY   -4 -15  59 NW22G30   30.28R WCI -28
ELY            MOSUNNY   -9 -18  64 NW14G24   30.28R HAZE    WCI -31
HIBBING        PTSUNNY   -8 -16  67 NW20      30.34R WCI -32
EVELETH        PTSUNNY   -6 -15  65 NW12G24   30.32R HAZE    WCI -24
DULUTH HARBOR  SUNNY      1 -13  51 NW18G24   30.39R WCI -19
TWO HARBORS    SUNNY      1 -13  51 NW8G21    30.28R WCI -12
SILVER BAY     SUNNY      1 -15  46 NW8       30.26R WCI -12
GRAND MARAIS     N/A     -2 -20  42 NW8       30.30R WCI -17
G MARAIS ARPRT MOSUNNY  -11 -24  53 NW14G28   30.11R HAZE    WCI -33
$$
MNZ029>031-032-039>041-046>048-054>057-064-121700-
   West Central Minnesota

CITY           SKY/WX    TMP DP  RH WIND       PRES   REMARKS
FERGUS FALLS   PTSUNNY    0  -9  65 N25       30.57R WCI -25
WHEATON        CLOUDY     3  -2  78 NW17G23   30.58R WCI -17
MORRIS         MOSUNNY    1  -6  71 N24G31    30.50R HAZE    WCI -22
ALEXANDRIA     SUNNY      0 -10  63 N18       30.45R WCI -21
ELBOW LAKE     FAIR      -1  -8  71 NW21G26   30.51R WCI -24
WADENA         SUNNY     -2 -11  65 N13       30.45R WCI -21
GLENWOOD       SUNNY      1  -9  60 NW20G28   30.45R WCI -20
APPLETON       SUNNY      5  -2  72 N22G28    30.53R HAZE    WCI -16
BENSON         SUNNY      3  -6  66 N16       30.49R WCI -16
ORTONVILLE     MOSUNNY    3  -6  66 N21       30.54R WCI -18
MADISON        SUNNY      7  -2  66 N21       30.53R WCI -13
WILLMAR        FAIR       7  -2  66 NW22      30.46R WCI -14
$$
MNZ033>034-036-042>043-049>051-058-059-121700-
   Central Minnesota

CITY           SKY/WX    TMP DP  RH WIND       PRES   REMARKS
ST CLOUD       SUNNY      3  -8  60 N20G30    30.41R WCI -18
SAUK CENTRE    FAIR       0  -8  66 NW20G25   30.44R WCI -21
PAYNESVILLE    SUNNY      3  -7  63 NW18G25   30.44R WCI -17
AITKIN         SUNNY      1 -15  46 NW13      30.38R WCI -16
PINE RIVER     SUNNY     -2 -13  60 NW16      30.44R WCI -23
BRAINERD       SUNNY     -2 -12  62 N20G25    30.42R WCI -24
STAPLES        SUNNY     -2 -13  60 N12       30.44R WCI -20
LONG PRAIRIE   FAIR       0  -8  71 NW17G24   30.44R HAZE    WCI -21
LITTLE FALLS   SNOW       1  -9  60 NW9G24    30.43R VSB 1/2 WCI -14
LITCHFIELD     SUNNY      7  -6  56 NW20G28   30.42R WCI -13
BUFFALO        SUNNY      6  -4  62 NW14      30.41R WCI -11
MAPLE LAKE     SUNNY      7  -3  63 NW18      30.42R WCI -12
$$
MNZ037-044-045-052-053-121700-
   East Central Minnesota

CITY           SKY/WX    TMP DP  RH WIND       PRES   REMARKS
PRINCETON      SUNNY      7  -6  56 NW16      30.40R WCI -11
MORA           SUNNY      5  -8  56 NW17G23   30.39R WCI -14
CAMBRIDGE      SUNNY      7  -8  51 NW13G22   30.38R WCI  -9
RUSH CITY      SUNNY      5  -8  53 NW10G18   30.38R WCI -10
MOOSE LAKE     MOSUNNY    1 -13  51 N15G22    30.35R WCI -18
HINCKLEY       FAIR       3  -9  55 N14G28    30.36R WCI -15
CLOQUET        SUNNY     -2 -15  55 NW18G26   30.31R WCI -24
MCGREGOR       MOSUNNY    0 -11  60 NW14G20   30.37R WCI -19
$$
MNZ071>073-080-081-089-090-097-098-121700-
   Southwest Minnesota

CITY           SKY/WX    TMP DP  RH WIND       PRES   REMARKS
MONTEVIDEO     LGT SNOW   7  -2  66 N20G25    30.52R WCI -13
GRANITE FALLS  SUNNY      8  -2  65 NW14G25   30.52R WCI  -9
CANBY          SUNNY     10   2  70 W16       30.53R WCI  -8
MARSHALL       SUNNY      6  -3  66 N22G31    30.49R WCI -15
REDWOOD FALLS  SUNNY      8  -3  61 N17G25    30.48R WCI -10
OLIVIA         SUNNY     10   1  67 NW18G28   30.46R WCI  -8
PIPESTONE      SUNNY     10  -6  48 N14G20    30.46R WCI  -5
WINDOM         SUNNY      7   0  72 NW22      30.43R HAZE    WCI -14
WORTHINGTON    SUNNY      9   0  66 N24       30.44R WCI -12
JACKSON        SUNNY     10  -2  56 NW22G33   30.42R WCI  -9
TRACY          SUNNY      8   0  69 N22G28    30.47R WCI -13
SLAYTON        SUNNY      6  -3  66 NW20G28   30.45R HAZE    WCI -13
$$
MNZ065>067-074>077-082>085-091>093-121700-
   South Central Minnesota

CITY           SKY/WX    TMP DP  RH WIND       PRES   REMARKS
MANKATO        SUNNY    N/A N/A N/A NW22G28   30.39R
NEW ULM        SUNNY      9  -2  61 NW23      30.42R WCI -12
ST JAMES       SUNNY      9   1  72 NW21      30.45R WCI -11
FAIRMONT       SUNNY      9   0  66 NW22G28   30.40R WCI -11
GLENCOE        SUNNY      9  -1  62 NW16G22   30.41R WCI  -8
FARIBAULT        N/A      9   0  66 NW13G21   30.37R WCI  -7
OWATONNA       SUNNY      9   0  66 NW20      30.35R WCI -11
WASECA         SUNNY     12   3  67 NW16      30.39R WCI  -4
ALBERT LEA     SUNNY     10   1  67 NW13G21   30.34R WCI  -5
$$
MNZ078>079-086>088-094>096-121700-
   Southeast Minnesota

CITY           SKY/WX    TMP DP  RH WIND       PRES   REMARKS
ROCHESTER      SUNNY      8   1  73 NW28      30.28R HAZE    WCI -14
RED WING       SUNNY     10  -2  56 NW15G23   30.33R WCI  -6
STANTON        SUNNY     10  -1  60 NW14G22   30.35R WCI  -5
DODGE CENTER   MOSUNNY   10   1  67 NW20      30.30R WCI  -8
WINONA         SUNNY     14   5  67 NW18G26   30.32R WCI  -3
AUSTIN         SUNNY      9   1  72 NW20G28   30.32R WCI -11
PRESTON        SUNNY      9   1  70 NW14G20   30.29R WCI  -7
$$
ABBREVIATIONS USED IN REMARKS
   TC - TEMPERATURES IN CELSIUS
  WCI - WIND CHILL INDEX
   HX - HEAT INDEX
  VSB - VISIBILITY
$$



USA.gov is the U.S. government's official web portal to all federal, state and local government web resources and services.